Time,TemperatureF,DewpointF,PressureIn,WindDirection,WindDirectionDegrees,WindSpeedMPH,WindSpeedGustMPH,Humidity,HourlyPrecipIn,Conditions,Clouds,dailyrainin,SoftwareType,DateUTC
2013-01-04 00:04:00,40.5,30.4,31.00,NNE,28,3.0,4.0,67,0.00,,,0.00,Weather View 32 v70,2013-01-04 06:04:00,
2013-01-04 00:09:00,40.4,30.7,31.00,NNE,28,3.0,5.0,68,0.00,,,0.00,Weather View 32 v70,2013-01-04 06:09:00,
2013-01-04 00:14:00,40.2,30.5,31.00,NNE,28,2.0,5.0,68,0.00,,,0.00,Weather View 32 v70,2013-01-04 06:14:00,
2013-01-04 00:19:00,39.9,30.5,30.99,NNE,28,4.0,5.0,69,0.00,,,0.00,Weather View 32 v70,2013-01-04 06:19:00,
2013-01-04 00:24:00,39.9,30.5,30.99,NNE,28,5.0,6.0,69,0.00,,,0.00,Weather View 32 v70,2013-01-04 06:24:00,
2013-01-04 00:29:00,39.7,30.7,30.98,NNE,28,5.0,6.0,70,0.00,,,0.00,Weather View 32 v70,2013-01-04 06:29:00,
2013-01-04 00:34:00,39.6,30.6,30.98,NNE,28,4.0,6.0,70,0.00,,,0.00,Weather View 32 v70,2013-01-04 06:34:00,
2013-01-04 00:39:00,39.4,30.8,30.98,NNE,28,3.0,6.0,71,0.00,,,0.00,Weather View 32 v70,2013-01-04 06:39:00,
2013-01-04 00:44:00,39.5,30.5,30.98,NNE,28,3.0,6.0,70,0.00,,,0.00,Weather View 32 v70,2013-01-04 06:44:00,
2013-01-04 00:49:00,39.8,30.5,30.98,NNE,28,2.0,6.0,69,0.00,,,0.00,Weather View 32 v70,2013-01-04 06:49:00,
2013-01-04 00:54:00,40.0,30.6,30.98,NNE,28,2.0,6.0,69,0.00,,,0.00,Weather View 32 v70,2013-01-04 06:54:00,
2013-01-04 00:59:00,40.2,30.5,30.97,NNE,28,3.0,6.0,68,0.00,,,0.00,Weather View 32 v70,2013-01-04 06:59:00,
2013-01-04 01:04:00,40.3,30.2,30.98,North,6,3.0,6.0,67,0.00,,,0.00,Weather View 32 v70,2013-01-04 07:04:00,
2013-01-04 01:09:00,40.1,30.4,30.99,NNW,343,3.0,6.0,68,0.00,,,0.00,Weather View 32 v70,2013-01-04 07:09:00,
2013-01-04 01:14:00,40.0,30.3,30.99,NNE,28,3.0,6.0,68,0.00,,,0.00,Weather View 32 v70,2013-01-04 07:14:00,
2013-01-04 01:19:00,40.0,30.3,30.98,NNE,28,4.0,6.0,68,0.00,,,0.00,Weather View 32 v70,2013-01-04 07:19:00,
2013-01-04 01:24:00,40.1,30.4,30.98,NNE,28,3.0,6.0,68,0.00,,,0.00,Weather View 32 v70,2013-01-04 07:24:00,
2013-01-04 01:29:00,40.2,30.1,30.98,NNE,28,3.0,6.0,67,0.00,,,0.00,Weather View 32 v70,2013-01-04 07:29:00,
2013-01-04 01:34:00,40.1,30.0,30.99,North,6,3.0,6.0,67,0.00,,,0.00,Weather View 32 v70,2013-01-04 07:34:00,
2013-01-04 01:39:00,40.0,29.9,30.99,NNE,28,3.0,5.0,67,0.00,,,0.00,Weather View 32 v70,2013-01-04 07:39:00,
2013-01-04 01:44:00,39.7,30.0,30.98,North,6,5.0,6.0,68,0.00,,,0.00,Weather View 32 v70,2013-01-04 07:44:00,
2013-01-04 01:49:00,39.3,30.0,30.98,NNE,28,4.0,6.0,69,0.00,,,0.00,Weather View 32 v70,2013-01-04 07:49:00,
2013-01-04 01:54:00,38.9,29.9,30.97,NNE,28,4.0,6.0,70,0.00,,,0.00,Weather View 32 v70,2013-01-04 07:54:00,
2013-01-04 01:59:00,38.7,30.1,30.98,NNE,28,3.0,6.0,71,0.00,,,0.00,Weather View 32 v70,2013-01-04 07:59:00,
2013-01-04 02:04:00,38.4,30.2,30.98,NNE,28,3.0,6.0,72,0.00,,,0.00,Weather View 32 v70,2013-01-04 08:04:00,
2013-01-04 02:09:00,38.4,30.2,30.99,NNW,343,3.0,6.0,72,0.00,,,0.00,Weather View 32 v70,2013-01-04 08:09:00,
2013-01-04 02:14:00,38.3,30.1,30.99,North,6,4.0,6.0,72,0.00,,,0.00,Weather View 32 v70,2013-01-04 08:14:00,
2013-01-04 02:19:00,38.3,30.1,30.98,North,6,3.0,6.0,72,0.00,,,0.00,Weather View 32 v70,2013-01-04 08:19:00,
2013-01-04 02:24:00,38.2,30.0,30.98,NNE,28,4.0,6.0,72,0.00,,,0.00,Weather View 32 v70,2013-01-04 08:24:00,
2013-01-04 02:29:00,38.0,30.1,30.97,ENE,73,3.0,6.0,73,0.00,,,0.00,Weather View 32 v70,2013-01-04 08:29:00,
2013-01-04 02:34:00,37.8,30.3,30.97,NNE,28,5.0,6.0,74,0.00,,,0.00,Weather View 32 v70,2013-01-04 08:34:00,
2013-01-04 02:39:00,37.7,30.2,30.98,NE,51,3.0,6.0,74,0.00,,,0.00,Weather View 32 v70,2013-01-04 08:39:00,
2013-01-04 02:44:00,37.7,30.2,30.99,NNE,28,1.0,6.0,74,0.00,,,0.00,Weather View 32 v70,2013-01-04 08:44:00,
2013-01-04 02:49:00,37.6,30.1,30.99,NNE,28,1.0,6.0,74,0.00,,,0.00,Weather View 32 v70,2013-01-04 08:49:00,
2013-01-04 02:54:00,37.5,30.0,30.99,NNE,28,0.0,6.0,74,0.00,,,0.00,Weather View 32 v70,2013-01-04 08:54:00,
2013-01-04 02:59:00,37.0,29.8,31.00,NW,321,1.0,6.0,75,0.00,,,0.00,Weather View 32 v70,2013-01-04 08:59:00,
2013-01-04 03:04:00,36.6,29.7,31.00,NW,321,1.0,6.0,76,0.00,,,0.00,Weather View 32 v70,2013-01-04 09:04:00,
2013-01-04 03:09:00,36.7,29.8,31.01,NW,321,1.0,6.0,76,0.00,,,0.00,Weather View 32 v70,2013-01-04 09:09:00,
2013-01-04 03:14:00,37.0,30.1,31.01,North,6,0.0,6.0,76,0.00,,,0.00,Weather View 32 v70,2013-01-04 09:14:00,
2013-01-04 03:19:00,37.3,30.1,31.00,North,6,1.0,6.0,75,0.00,,,0.00,Weather View 32 v70,2013-01-04 09:19:00,
2013-01-04 03:24:00,37.6,30.4,31.00,North,6,2.0,6.0,75,0.00,,,0.00,Weather View 32 v70,2013-01-04 09:24:00,
2013-01-04 03:29:00,37.9,30.3,31.01,NNW,343,2.0,6.0,74,0.00,,,0.00,Weather View 32 v70,2013-01-04 09:29:00,
2013-01-04 03:34:00,38.1,30.2,31.01,North,6,2.0,6.0,73,0.00,,,0.00,Weather View 32 v70,2013-01-04 09:34:00,
2013-01-04 03:39:00,38.3,30.4,31.02,NNW,343,3.0,5.0,73,0.00,,,0.00,Weather View 32 v70,2013-01-04 09:39:00,
2013-01-04 03:44:00,38.6,30.7,31.02,NNW,343,3.0,5.0,73,0.00,,,0.00,Weather View 32 v70,2013-01-04 09:44:00,
2013-01-04 03:49:00,38.8,30.5,31.03,NW,321,3.0,5.0,72,0.00,,,0.00,Weather View 32 v70,2013-01-04 09:49:00,
2013-01-04 03:54:00,39.0,30.4,31.03,NNW,343,3.0,5.0,71,0.00,,,0.00,Weather View 32 v70,2013-01-04 09:54:00,
2013-01-04 03:59:00,39.2,30.6,31.03,NNW,343,2.0,5.0,71,0.00,,,0.00,Weather View 32 v70,2013-01-04 09:59:00,
2013-01-04 04:04:00,39.2,30.6,31.03,North,6,3.0,5.0,71,0.00,,,0.00,Weather View 32 v70,2013-01-04 10:04:00,
2013-01-04 04:09:00,39.2,30.6,31.03,North,6,1.0,5.0,71,0.00,,,0.00,Weather View 32 v70,2013-01-04 10:09:00,
2013-01-04 04:14:00,39.2,30.9,31.04,NNW,343,2.0,5.0,72,0.00,,,0.00,Weather View 32 v70,2013-01-04 10:14:00,
2013-01-04 04:19:00,39.2,30.9,31.04,NNW,343,1.0,5.0,72,0.00,,,0.00,Weather View 32 v70,2013-01-04 10:19:00,
2013-01-04 04:24:00,39.3,31.4,31.03,NNW,343,2.0,5.0,73,0.00,,,0.00,Weather View 32 v70,2013-01-04 10:24:00,
2013-01-04 04:29:00,39.3,31.4,31.02,NNE,28,1.0,5.0,73,0.00,,,0.00,Weather View 32 v70,2013-01-04 10:29:00,
2013-01-04 04:34:00,39.2,31.6,31.01,ENE,73,2.0,5.0,74,0.00,,,0.00,Weather View 32 v70,2013-01-04 10:34:00,
2013-01-04 04:39:00,39.2,31.6,31.01,NE,51,2.0,5.0,74,0.00,,,0.00,Weather View 32 v70,2013-01-04 10:39:00,
2013-01-04 04:44:00,39.2,31.6,31.02,NNE,28,4.0,5.0,74,0.00,,,0.00,Weather View 32 v70,2013-01-04 10:44:00,
2013-01-04 04:49:00,39.1,31.8,31.02,NNE,28,1.0,5.0,75,0.00,,,0.00,Weather View 32 v70,2013-01-04 10:49:00,
2013-01-04 04:54:00,39.0,31.7,31.02,NNE,28,0.0,5.0,75,0.00,,,0.00,Weather View 32 v70,2013-01-04 10:54:00,
2013-01-04 04:59:00,38.8,31.5,31.03,North,6,0.0,5.0,75,0.00,,,0.00,Weather View 32 v70,2013-01-04 10:59:00,
2013-01-04 05:04:00,38.7,31.8,31.03,NNW,343,0.0,5.0,76,0.00,,,0.00,Weather View 32 v70,2013-01-04 11:04:00,
2013-01-04 05:09:00,38.8,31.9,31.03,NNE,28,0.0,5.0,76,0.00,,,0.00,Weather View 32 v70,2013-01-04 11:09:00,
2013-01-04 05:14:00,38.7,31.8,31.03,NNE,28,0.0,5.0,76,0.00,,,0.00,Weather View 32 v70,2013-01-04 11:14:00,
2013-01-04 05:19:00,38.6,31.4,31.04,NNW,343,0.0,5.0,75,0.00,,,0.00,Weather View 32 v70,2013-01-04 11:19:00,
2013-01-04 05:24:00,38.5,31.6,31.05,WNW,298,0.0,5.0,76,0.00,,,0.00,Weather View 32 v70,2013-01-04 11:24:00,
2013-01-04 05:29:00,38.4,31.5,31.05,WSW,253,0.0,5.0,76,0.00,,,0.00,Weather View 32 v70,2013-01-04 11:29:00,
2013-01-04 05:34:00,38.4,31.2,31.05,NW,321,0.0,5.0,75,0.00,,,0.00,Weather View 32 v70,2013-01-04 11:34:00,
2013-01-04 05:39:00,38.7,30.8,31.04,NNW,343,1.0,5.0,73,0.00,,,0.00,Weather View 32 v70,2013-01-04 11:39:00,
2013-01-04 05:44:00,38.9,31.0,31.05,North,6,0.0,5.0,73,0.00,,,0.00,Weather View 32 v70,2013-01-04 11:44:00,
2013-01-04 05:49:00,39.0,31.1,31.04,NNE,28,0.0,3.0,73,0.00,,,0.00,Weather View 32 v70,2013-01-04 11:49:00,
2013-01-04 05:54:00,38.9,31.0,31.04,North,6,0.0,2.0,73,0.00,,,0.00,Weather View 32 v70,2013-01-04 11:54:00,
2013-01-04 05:59:00,38.8,30.9,31.05,NW,321,1.0,3.0,73,0.00,,,0.00,Weather View 32 v70,2013-01-04 11:59:00,
2013-01-04 06:04:00,38.8,31.2,31.05,NNE,28,0.0,3.0,74,0.00,,,0.00,Weather View 32 v70,2013-01-04 12:04:00,
2013-01-04 06:09:00,38.8,31.2,31.05,NW,321,1.0,3.0,74,0.00,,,0.00,Weather View 32 v70,2013-01-04 12:09:00,
2013-01-04 06:14:00,38.7,31.1,31.05,NNW,343,1.0,3.0,74,0.00,,,0.00,Weather View 32 v70,2013-01-04 12:14:00,
2013-01-04 06:19:00,38.9,31.0,31.05,NNW,343,0.0,3.0,73,0.00,,,0.00,Weather View 32 v70,2013-01-04 12:19:00,
2013-01-04 06:24:00,38.9,31.3,31.04,North,6,0.0,3.0,74,0.00,,,0.00,Weather View 32 v70,2013-01-04 12:24:00,
2013-01-04 06:29:00,38.9,30.6,31.04,NNE,28,2.0,3.0,72,0.00,,,0.00,Weather View 32 v70,2013-01-04 12:29:00,
2013-01-04 06:34:00,38.8,30.2,31.04,NNW,343,1.0,3.0,71,0.00,,,0.00,Weather View 32 v70,2013-01-04 12:34:00,
2013-01-04 06:39:00,38.7,30.1,31.04,North,6,2.0,3.0,71,0.00,,,0.00,Weather View 32 v70,2013-01-04 12:39:00,
2013-01-04 06:44:00,38.7,30.1,31.05,NNW,343,2.0,4.0,71,0.00,,,0.00,Weather View 32 v70,2013-01-04 12:44:00,
2013-01-04 06:49:00,38.7,30.1,31.05,WNW,298,5.0,5.0,71,0.00,,,0.00,Weather View 32 v70,2013-01-04 12:49:00,
2013-01-04 06:54:00,38.9,29.9,31.05,NNW,343,3.0,6.0,70,0.00,,,0.00,Weather View 32 v70,2013-01-04 12:54:00,
2013-01-04 06:59:00,38.9,30.3,31.06,WNW,298,4.0,6.0,71,0.00,,,0.00,Weather View 32 v70,2013-01-04 12:59:00,
2013-01-04 07:04:00,38.9,30.3,31.05,NW,321,4.0,6.0,71,0.00,,,0.00,Weather View 32 v70,2013-01-04 13:04:00,
2013-01-04 07:09:00,38.9,30.3,31.05,North,6,5.0,6.0,71,0.00,,,0.00,Weather View 32 v70,2013-01-04 13:09:00,
2013-01-04 07:14:00,38.7,29.8,31.06,NNW,343,5.0,6.0,70,0.00,,,0.00,Weather View 32 v70,2013-01-04 13:14:00,
2013-01-04 07:19:00,38.8,30.2,31.06,North,6,3.0,6.0,71,0.00,,,0.00,Weather View 32 v70,2013-01-04 13:19:00,
2013-01-04 07:24:00,38.7,29.8,31.05,NNE,28,4.0,6.0,70,0.00,,,0.00,Weather View 32 v70,2013-01-04 13:24:00,
2013-01-04 07:29:00,38.8,29.8,31.05,NE,51,3.0,6.0,70,0.00,,,0.00,Weather View 32 v70,2013-01-04 13:29:00,
2013-01-04 07:34:00,38.8,30.2,31.06,North,6,0.0,6.0,71,0.00,,,0.00,Weather View 32 v70,2013-01-04 13:34:00,
2013-01-04 07:39:00,38.7,30.1,31.06,NNE,28,0.0,6.0,71,0.00,,,0.00,Weather View 32 v70,2013-01-04 13:39:00,
2013-01-04 07:44:00,38.7,30.4,31.06,North,6,1.0,6.0,72,0.00,,,0.00,Weather View 32 v70,2013-01-04 13:44:00,
2013-01-04 07:49:00,38.6,30.7,31.06,North,6,2.0,6.0,73,0.00,,,0.00,Weather View 32 v70,2013-01-04 13:49:00,
2013-01-04 07:54:00,38.5,30.6,31.05,NNE,28,2.0,6.0,73,0.00,,,0.00,Weather View 32 v70,2013-01-04 13:54:00,
2013-01-04 07:59:00,38.7,31.1,31.05,NNE,28,0.0,6.0,74,0.00,,,0.00,Weather View 32 v70,2013-01-04 13:59:00,
2013-01-04 08:04:00,38.7,31.5,31.05,NE,51,2.0,6.0,75,0.00,,,0.00,Weather View 32 v70,2013-01-04 14:04:00,
2013-01-04 08:09:00,38.8,31.5,31.05,NNE,28,1.0,6.0,75,0.00,,,0.00,Weather View 32 v70,2013-01-04 14:09:00,
2013-01-04 08:14:00,38.8,31.5,31.06,ENE,73,0.0,6.0,75,0.00,,,0.00,Weather View 32 v70,2013-01-04 14:14:00,
2013-01-04 08:19:00,38.9,32.0,31.06,NNE,28,0.0,5.0,76,0.00,,,0.00,Weather View 32 v70,2013-01-04 14:19:00,
2013-01-04 08:24:00,39.0,31.7,31.06,East,96,0.0,5.0,75,0.00,,,0.00,Weather View 32 v70,2013-01-04 14:24:00,
2013-01-04 08:29:00,39.0,31.7,31.06,SE,141,1.0,4.0,75,0.00,,,0.00,Weather View 32 v70,2013-01-04 14:29:00,
2013-01-04 08:34:00,39.1,31.5,31.06,SSW,208,1.0,4.0,74,0.00,,,0.00,Weather View 32 v70,2013-01-04 14:34:00,
2013-01-04 08:39:00,39.2,31.3,31.07,South,186,1.0,4.0,73,0.00,,,0.00,Weather View 32 v70,2013-01-04 14:39:00,
2013-01-04 08:44:00,39.3,30.0,31.07,East,96,1.0,4.0,69,0.00,,,0.00,Weather View 32 v70,2013-01-04 14:44:00,
2013-01-04 08:49:00,39.3,30.0,31.07,East,96,3.0,5.0,69,0.00,,,0.00,Weather View 32 v70,2013-01-04 14:49:00,
2013-01-04 08:54:00,39.2,29.9,31.07,ESE,118,3.0,6.0,69,0.00,,,0.00,Weather View 32 v70,2013-01-04 14:54:00,
2013-01-04 08:59:00,39.4,29.7,31.06,SE,141,3.0,6.0,68,0.00,,,0.00,Weather View 32 v70,2013-01-04 14:59:00,
2013-01-04 09:04:00,39.5,29.8,31.06,SE,141,3.0,6.0,68,0.00,,,0.00,Weather View 32 v70,2013-01-04 15:04:00,
2013-01-04 09:09:00,39.6,29.9,31.07,ESE,118,3.0,6.0,68,0.00,,,0.00,Weather View 32 v70,2013-01-04 15:09:00,
2013-01-04 09:14:00,39.8,30.1,31.07,East,96,2.0,6.0,68,0.00,,,0.00,Weather View 32 v70,2013-01-04 15:14:00,
2013-01-04 09:19:00,39.9,30.2,31.07,SE,141,3.0,6.0,68,0.00,,,0.00,Weather View 32 v70,2013-01-04 15:19:00,
2013-01-04 09:24:00,40.3,30.6,31.08,NE,51,0.0,6.0,68,0.00,,,0.00,Weather View 32 v70,2013-01-04 15:24:00,
2013-01-04 09:29:00,40.4,29.9,31.08,NW,321,2.0,6.0,66,0.00,,,0.00,Weather View 32 v70,2013-01-04 15:29:00,
2013-01-04 09:34:00,40.4,29.9,31.08,NW,321,2.0,6.0,66,0.00,,,0.00,Weather View 32 v70,2013-01-04 15:34:00,
2013-01-04 09:39:00,40.6,30.1,31.08,NNE,28,0.0,6.0,66,0.00,,,0.00,Weather View 32 v70,2013-01-04 15:39:00,
2013-01-04 09:44:00,40.8,29.9,31.08,North,6,1.0,6.0,65,0.00,,,0.00,Weather View 32 v70,2013-01-04 15:44:00,
2013-01-04 09:49:00,40.9,29.6,31.09,WNW,298,3.0,6.0,64,0.00,,,0.00,Weather View 32 v70,2013-01-04 15:49:00,
2013-01-04 09:54:00,41.2,29.9,31.09,WNW,298,3.0,5.0,64,0.00,,,0.00,Weather View 32 v70,2013-01-04 15:54:00,
2013-01-04 09:59:00,41.2,31.4,31.09,NW,321,4.0,6.0,68,0.00,,,0.00,Weather View 32 v70,2013-01-04 15:59:00,
2013-01-04 10:04:00,41.0,31.2,31.08,WNW,298,5.0,6.0,68,0.00,,,0.00,Weather View 32 v70,2013-01-04 16:04:00,
2013-01-04 10:09:00,41.1,31.3,31.08,WNW,298,3.0,6.0,68,0.00,,,0.00,Weather View 32 v70,2013-01-04 16:09:00,
2013-01-04 10:14:00,41.6,31.8,31.08,North,6,2.0,6.0,68,0.00,,,0.00,Weather View 32 v70,2013-01-04 16:14:00,
2013-01-04 10:19:00,41.8,32.0,31.08,NW,321,4.0,6.0,68,0.00,,,0.00,Weather View 32 v70,2013-01-04 16:19:00,
2013-01-04 10:24:00,41.8,31.3,31.09,NW,321,5.0,7.0,66,0.00,,,0.00,Weather View 32 v70,2013-01-04 16:24:00,
2013-01-04 10:30:00,41.8,31.3,31.09,NNW,343,4.0,7.0,66,0.00,,,0.00,Weather View 32 v70,2013-01-04 16:30:00,
2013-01-04 10:34:00,42.1,31.9,31.09,WNW,298,4.0,7.0,67,0.00,,,0.00,Weather View 32 v70,2013-01-04 16:34:00,
2013-01-04 10:39:00,41.8,30.9,31.08,NW,321,6.0,8.0,65,0.00,,,0.00,Weather View 32 v70,2013-01-04 16:39:00,
2013-01-04 10:45:00,42.1,31.5,31.08,WNW,298,5.0,8.0,66,0.00,,,0.00,Weather View 32 v70,2013-01-04 16:45:00,
2013-01-04 10:50:00,42.1,31.2,31.08,North,6,5.0,8.0,65,0.00,,,0.00,Weather View 32 v70,2013-01-04 16:50:00,
2013-01-04 10:55:00,41.9,29.8,31.08,NNW,343,4.0,8.0,62,0.00,,,0.00,Weather View 32 v70,2013-01-04 16:55:00,
2013-01-04 11:00:00,42.1,29.6,31.08,WNW,298,3.0,8.0,61,0.00,,,0.00,Weather View 32 v70,2013-01-04 17:00:00,
2013-01-04 11:05:00,42.4,29.9,31.08,WNW,298,4.0,8.0,61,0.00,,,0.00,Weather View 32 v70,2013-01-04 17:05:00,
2013-01-04 11:10:00,42.8,30.7,31.08,NW,321,3.0,8.0,62,0.00,,,0.00,Weather View 32 v70,2013-01-04 17:10:00,
2013-01-04 11:15:00,43.2,30.2,31.07,North,6,4.0,8.0,60,0.00,,,0.00,Weather View 32 v70,2013-01-04 17:15:00,
2013-01-04 11:20:00,43.5,30.1,31.07,North,6,2.0,8.0,59,0.00,,,0.00,Weather View 32 v70,2013-01-04 17:20:00,
2013-01-04 11:25:00,43.6,30.2,31.07,NNW,343,4.0,8.0,59,0.00,,,0.00,Weather View 32 v70,2013-01-04 17:25:00,
2013-01-04 11:30:00,44.0,30.6,31.06,NW,321,4.0,8.0,59,0.00,,,0.00,Weather View 32 v70,2013-01-04 17:30:00,
2013-01-04 11:35:00,44.1,30.7,31.06,WNW,298,5.0,8.0,59,0.00,,,0.00,Weather View 32 v70,2013-01-04 17:35:00,
2013-01-04 11:40:00,44.1,30.2,31.06,NNW,343,5.0,9.0,58,0.00,,,0.00,Weather View 32 v70,2013-01-04 17:40:00,
2013-01-04 11:45:00,44.1,30.2,31.06,NW,321,3.0,9.0,58,0.00,,,0.00,Weather View 32 v70,2013-01-04 17:45:00,
2013-01-04 11:50:00,43.5,29.7,31.06,West,276,4.0,9.0,58,0.00,,,0.00,Weather View 32 v70,2013-01-04 17:50:00,
2013-01-04 11:55:00,43.8,30.4,31.06,West,276,6.0,9.0,59,0.00,,,0.00,Weather View 32 v70,2013-01-04 17:55:00,
2013-01-04 12:00:00,43.8,30.0,31.05,NW,321,5.0,9.0,58,0.00,,,0.00,Weather View 32 v70,2013-01-04 18:00:00,
2013-01-04 12:05:00,43.7,29.9,31.05,WSW,253,3.0,9.0,58,0.00,,,0.00,Weather View 32 v70,2013-01-04 18:05:00,
2013-01-04 12:10:00,43.8,29.1,31.04,NW,321,5.0,9.0,56,0.00,,,0.00,Weather View 32 v70,2013-01-04 18:10:00,
2013-01-04 12:15:00,44.1,29.8,31.04,WNW,298,2.0,9.0,57,0.00,,,0.00,Weather View 32 v70,2013-01-04 18:15:00,
2013-01-04 12:20:00,44.0,29.7,31.04,WNW,298,4.0,9.0,57,0.00,,,0.00,Weather View 32 v70,2013-01-04 18:20:00,
2013-01-04 12:25:00,44.3,29.6,31.03,West,276,5.0,9.0,56,0.00,,,0.00,Weather View 32 v70,2013-01-04 18:25:00,
2013-01-04 12:30:00,44.5,29.3,31.03,NW,321,5.0,9.0,55,0.00,,,0.00,Weather View 32 v70,2013-01-04 18:30:00,
2013-01-04 12:35:00,44.6,29.9,31.02,NW,321,3.0,9.0,56,0.00,,,0.00,Weather View 32 v70,2013-01-04 18:35:00,
2013-01-04 12:40:00,44.8,30.0,31.01,North,6,6.0,9.0,56,0.00,,,0.00,Weather View 32 v70,2013-01-04 18:40:00,
2013-01-04 12:45:00,45.1,30.3,31.01,NE,51,4.0,9.0,56,0.00,,,0.00,Weather View 32 v70,2013-01-04 18:45:00,
2013-01-04 12:50:00,45.2,30.0,31.01,NNE,28,3.0,9.0,55,0.00,,,0.00,Weather View 32 v70,2013-01-04 18:50:00,
2013-01-04 12:55:00,45.2,29.5,31.01,West,276,3.0,9.0,54,0.00,,,0.00,Weather View 32 v70,2013-01-04 18:55:00,
2013-01-04 13:00:00,45.4,29.7,31.01,WNW,298,3.0,7.0,54,0.00,,,0.00,Weather View 32 v70,2013-01-04 19:00:00,
2013-01-04 13:05:00,45.0,29.3,31.00,NW,321,5.0,7.0,54,0.00,,,0.00,Weather View 32 v70,2013-01-04 19:05:00,
2013-01-04 13:10:00,45.1,29.9,31.00,WSW,253,5.0,7.0,55,0.00,,,0.00,Weather View 32 v70,2013-01-04 19:10:00,
2013-01-04 13:15:00,45.1,29.9,31.00,NW,321,4.0,8.0,55,0.00,,,0.00,Weather View 32 v70,2013-01-04 19:15:00,
2013-01-04 13:20:00,45.1,29.9,31.00,West,276,3.0,8.0,55,0.00,,,0.00,Weather View 32 v70,2013-01-04 19:20:00,
2013-01-04 13:25:00,45.6,30.3,31.00,SW,231,1.0,8.0,55,0.00,,,0.00,Weather View 32 v70,2013-01-04 19:25:00,
2013-01-04 13:30:00,45.5,29.8,30.99,SW,231,3.0,8.0,54,0.00,,,0.00,Weather View 32 v70,2013-01-04 19:30:00,
2013-01-04 13:35:00,45.3,29.6,30.99,West,276,9.0,10.0,54,0.00,,,0.00,Weather View 32 v70,2013-01-04 19:35:00,
2013-01-04 13:40:00,45.3,29.6,30.99,West,276,3.0,10.0,54,0.00,,,0.00,Weather View 32 v70,2013-01-04 19:40:00,
2013-01-04 13:45:00,45.3,29.6,30.99,West,276,5.0,10.0,54,0.00,,,0.00,Weather View 32 v70,2013-01-04 19:45:00,
2013-01-04 13:50:00,45.8,30.1,30.99,NNE,28,0.0,10.0,54,0.00,,,0.00,Weather View 32 v70,2013-01-04 19:50:00,
2013-01-04 13:55:00,45.8,29.6,30.99,WNW,298,2.0,10.0,53,0.00,,,0.00,Weather View 32 v70,2013-01-04 19:55:00,
2013-01-04 14:00:00,45.9,29.7,30.98,NW,321,3.0,10.0,53,0.00,,,0.00,Weather View 32 v70,2013-01-04 20:00:00,
2013-01-04 14:05:00,45.8,29.6,30.98,WNW,298,3.0,10.0,53,0.00,,,0.00,Weather View 32 v70,2013-01-04 20:05:00,
2013-01-04 14:10:00,46.5,30.3,30.98,North,6,1.0,10.0,53,0.00,,,0.00,Weather View 32 v70,2013-01-04 20:10:00,
2013-01-04 14:15:00,46.2,29.5,30.98,WNW,298,3.0,10.0,52,0.00,,,0.00,Weather View 32 v70,2013-01-04 20:15:00,
2013-01-04 14:20:00,46.7,30.4,30.97,NNW,343,0.0,10.0,53,0.00,,,0.00,Weather View 32 v70,2013-01-04 20:20:00,
2013-01-04 14:25:00,46.7,29.5,30.97,NNE,28,3.0,10.0,51,0.00,,,0.00,Weather View 32 v70,2013-01-04 20:25:00,
2013-01-04 14:30:00,46.8,30.1,30.96,NNE,28,0.0,10.0,52,0.00,,,0.00,Weather View 32 v70,2013-01-04 20:30:00,
2013-01-04 14:35:00,47.4,30.6,30.96,NNE,28,0.0,9.0,52,0.00,,,0.00,Weather View 32 v70,2013-01-04 20:35:00,
2013-01-04 14:40:00,47.1,29.9,30.96,North,6,2.0,8.0,51,0.00,,,0.00,Weather View 32 v70,2013-01-04 20:40:00,
2013-01-04 14:45:00,47.1,29.4,30.96,North,6,3.0,8.0,50,0.00,,,0.00,Weather View 32 v70,2013-01-04 20:45:00,
2013-01-04 14:50:00,47.1,29.9,30.96,NE,51,0.0,8.0,51,0.00,,,0.00,Weather View 32 v70,2013-01-04 20:50:00,
2013-01-04 14:55:00,47.3,30.1,30.95,SSE,163,1.0,6.0,51,0.00,,,0.00,Weather View 32 v70,2013-01-04 20:55:00,
2013-01-04 15:00:00,47.5,30.2,30.95,North,6,3.0,6.0,51,0.00,,,0.00,Weather View 32 v70,2013-01-04 21:00:00,
2013-01-04 15:05:00,47.4,29.7,30.96,NNE,28,3.0,6.0,50,0.00,,,0.00,Weather View 32 v70,2013-01-04 21:05:00,
2013-01-04 15:10:00,47.7,29.9,30.96,ENE,73,3.0,6.0,50,0.00,,,0.00,Weather View 32 v70,2013-01-04 21:10:00,
2013-01-04 15:15:00,47.9,29.6,30.96,North,6,1.0,6.0,49,0.00,,,0.00,Weather View 32 v70,2013-01-04 21:15:00,
2013-01-04 15:20:00,47.6,29.4,30.95,NNW,343,0.0,6.0,49,0.00,,,0.00,Weather View 32 v70,2013-01-04 21:20:00,
2013-01-04 15:25:00,47.3,29.1,30.96,WNW,298,2.0,6.0,49,0.00,,,0.00,Weather View 32 v70,2013-01-04 21:25:00,
2013-01-04 15:30:00,47.3,29.6,30.96,WNW,298,3.0,6.0,50,0.00,,,0.00,Weather View 32 v70,2013-01-04 21:30:00,
2013-01-04 15:35:00,47.6,29.8,30.96,North,6,0.0,6.0,50,0.00,,,0.00,Weather View 32 v70,2013-01-04 21:35:00,
2013-01-04 15:40:00,47.7,29.9,30.96,NE,51,1.0,6.0,50,0.00,,,0.00,Weather View 32 v70,2013-01-04 21:40:00,
2013-01-04 15:45:00,47.5,29.8,30.95,North,6,1.0,6.0,50,0.00,,,0.00,Weather View 32 v70,2013-01-04 21:45:00,
2013-01-04 15:51:00,47.6,29.8,30.95,North,6,1.0,6.0,50,0.00,,,0.00,Weather View 32 v70,2013-01-04 21:51:00,
2013-01-04 15:56:00,47.4,29.7,30.96,NNW,343,0.0,6.0,50,0.00,,,0.00,Weather View 32 v70,2013-01-04 21:56:00,
2013-01-04 16:01:00,47.3,30.1,30.95,NW,321,3.0,6.0,51,0.00,,,0.00,Weather View 32 v70,2013-01-04 22:01:00,
2013-01-04 16:06:00,46.8,29.6,30.95,NNW,343,6.0,6.0,51,0.00,,,0.00,Weather View 32 v70,2013-01-04 22:06:00,
2013-01-04 16:11:00,46.7,29.5,30.95,NNW,343,5.0,7.0,51,0.00,,,0.00,Weather View 32 v70,2013-01-04 22:11:00,
2013-01-04 16:16:00,46.8,29.6,30.95,NNW,343,4.0,7.0,51,0.00,,,0.00,Weather View 32 v70,2013-01-04 22:16:00,
2013-01-04 16:21:00,47.4,30.1,30.94,WNW,298,5.0,7.0,51,0.00,,,0.00,Weather View 32 v70,2013-01-04 22:21:00,
2013-01-04 16:26:00,47.4,29.7,30.95,NW,321,5.0,8.0,50,0.00,,,0.00,Weather View 32 v70,2013-01-04 22:26:00,
2013-01-04 16:31:00,47.8,30.0,30.95,WNW,298,4.0,8.0,50,0.00,,,0.00,Weather View 32 v70,2013-01-04 22:31:00,
2013-01-04 16:36:00,47.5,29.8,30.95,NNW,343,4.0,8.0,50,0.00,,,0.00,Weather View 32 v70,2013-01-04 22:36:00,
2013-01-04 16:41:00,47.5,30.7,30.95,North,6,3.0,8.0,52,0.00,,,0.00,Weather View 32 v70,2013-01-04 22:41:00,
2013-01-04 16:46:00,47.3,30.1,30.95,North,6,4.0,8.0,51,0.00,,,0.00,Weather View 32 v70,2013-01-04 22:46:00,
2013-01-04 16:51:00,47.1,30.4,30.95,NNE,28,3.0,8.0,52,0.00,,,0.00,Weather View 32 v70,2013-01-04 22:51:00,
2013-01-04 16:56:00,46.5,28.8,30.95,NW,321,3.0,8.0,50,0.00,,,0.00,Weather View 32 v70,2013-01-04 22:56:00,
2013-01-04 17:01:00,46.5,29.3,30.95,NW,321,3.0,8.0,51,0.00,,,0.00,Weather View 32 v70,2013-01-04 23:01:00,
2013-01-04 17:06:00,46.4,29.7,30.95,NNW,343,3.0,8.0,52,0.00,,,0.00,Weather View 32 v70,2013-01-04 23:06:00,
2013-01-04 17:11:00,46.2,29.5,30.95,NNW,343,3.0,8.0,52,0.00,,,0.00,Weather View 32 v70,2013-01-04 23:11:00,
2013-01-04 17:16:00,46.0,29.3,30.94,NNW,343,6.0,8.0,52,0.00,,,0.00,Weather View 32 v70,2013-01-04 23:16:00,
2013-01-04 17:21:00,46.0,29.8,30.95,NW,321,5.0,8.0,53,0.00,,,0.00,Weather View 32 v70,2013-01-04 23:21:00,
2013-01-04 17:26:00,45.9,29.7,30.95,NW,321,3.0,7.0,53,0.00,,,0.00,Weather View 32 v70,2013-01-04 23:26:00,
2013-01-04 17:31:00,45.8,29.6,30.95,NW,321,1.0,7.0,53,0.00,,,0.00,Weather View 32 v70,2013-01-04 23:31:00,
2013-01-04 17:36:00,45.8,30.5,30.94,NNW,343,2.0,7.0,55,0.00,,,0.00,Weather View 32 v70,2013-01-04 23:36:00,
2013-01-04 17:41:00,45.7,30.9,30.95,North,6,1.0,6.0,56,0.00,,,0.00,Weather View 32 v70,2013-01-04 23:41:00,
2013-01-04 17:46:00,45.5,30.7,30.95,NNW,343,2.0,6.0,56,0.00,,,0.00,Weather View 32 v70,2013-01-04 23:46:00,
2013-01-04 17:51:00,45.4,31.0,30.94,NNE,28,1.0,6.0,57,0.00,,,0.00,Weather View 32 v70,2013-01-04 23:51:00,
2013-01-04 17:56:00,45.3,30.9,30.95,North,6,1.0,6.0,57,0.00,,,0.00,Weather View 32 v70,2013-01-04 23:56:00,
2013-01-04 18:01:00,45.3,30.9,30.95,North,6,2.0,6.0,57,0.00,,,0.00,Weather View 32 v70,2013-01-05 00:01:00,
2013-01-04 18:06:00,45.3,30.5,30.95,North,6,1.0,6.0,56,0.00,,,0.00,Weather View 32 v70,2013-01-05 00:06:00,
2013-01-04 18:11:00,45.4,30.6,30.95,North,6,1.0,6.0,56,0.00,,,0.00,Weather View 32 v70,2013-01-05 00:11:00,
2013-01-04 18:16:00,45.3,30.9,30.96,North,6,1.0,6.0,57,0.00,,,0.00,Weather View 32 v70,2013-01-05 00:16:00,
2013-01-04 18:21:00,45.3,30.9,30.96,North,6,1.0,5.0,57,0.00,,,0.00,Weather View 32 v70,2013-01-05 00:21:00,
2013-01-04 18:26:00,45.3,30.9,30.96,North,6,1.0,5.0,57,0.00,,,0.00,Weather View 32 v70,2013-01-05 00:26:00,
2013-01-04 18:31:00,45.2,30.8,30.95,North,6,3.0,5.0,57,0.00,,,0.00,Weather View 32 v70,2013-01-05 00:31:00,
2013-01-04 18:36:00,45.2,30.8,30.96,North,6,2.0,3.0,57,0.00,,,0.00,Weather View 32 v70,2013-01-05 00:36:00,
2013-01-04 18:41:00,45.1,30.8,30.96,NNE,28,3.0,3.0,57,0.00,,,0.00,Weather View 32 v70,2013-01-05 00:41:00,
2013-01-04 18:46:00,45.1,30.8,30.96,NNE,28,3.0,3.0,57,0.00,,,0.00,Weather View 32 v70,2013-01-05 00:46:00,
2013-01-04 18:51:00,45.2,30.8,30.96,NNE,28,3.0,3.0,57,0.00,,,0.00,Weather View 32 v70,2013-01-05 00:51:00,
2013-01-04 18:56:00,45.2,30.8,30.95,North,6,1.0,3.0,57,0.00,,,0.00,Weather View 32 v70,2013-01-05 00:56:00,
2013-01-04 19:01:00,45.1,31.2,30.95,North,6,3.0,4.0,58,0.00,,,0.00,Weather View 32 v70,2013-01-05 01:01:00,
2013-01-04 19:06:00,45.1,31.2,30.95,NNE,28,3.0,5.0,58,0.00,,,0.00,Weather View 32 v70,2013-01-05 01:06:00,
2013-01-04 19:11:00,45.0,31.1,30.95,NNE,28,4.0,5.0,58,0.00,,,0.00,Weather View 32 v70,2013-01-05 01:11:00,
2013-01-04 19:16:00,44.9,31.0,30.96,North,6,2.0,5.0,58,0.00,,,0.00,Weather View 32 v70,2013-01-05 01:16:00,
2013-01-04 19:21:00,44.8,30.9,30.96,North,6,1.0,5.0,58,0.00,,,0.00,Weather View 32 v70,2013-01-05 01:21:00,
2013-01-04 19:26:00,44.8,30.9,30.95,NNE,28,1.0,5.0,58,0.00,,,0.00,Weather View 32 v70,2013-01-05 01:26:00,
2013-01-04 19:31:00,44.7,30.8,30.95,NE,51,0.0,5.0,58,0.00,,,0.00,Weather View 32 v70,2013-01-05 01:31:00,
2013-01-04 19:36:00,44.7,30.8,30.95,ENE,73,2.0,5.0,58,0.00,,,0.00,Weather View 32 v70,2013-01-05 01:36:00,
2013-01-04 19:41:00,44.8,31.3,30.95,NE,51,2.0,5.0,59,0.00,,,0.00,Weather View 32 v70,2013-01-05 01:41:00,
2013-01-04 19:46:00,44.4,31.4,30.94,NE,51,3.0,5.0,60,0.00,,,0.00,Weather View 32 v70,2013-01-05 01:46:00,
2013-01-04 19:51:00,44.4,31.4,30.94,ENE,73,3.0,5.0,60,0.00,,,0.00,Weather View 32 v70,2013-01-05 01:51:00,
2013-01-04 19:56:00,44.2,31.2,30.94,NE,51,1.0,5.0,60,0.00,,,0.00,Weather View 32 v70,2013-01-05 01:56:00,
2013-01-04 20:01:00,44.2,31.6,30.95,NNE,28,0.0,5.0,61,0.00,,,0.00,Weather View 32 v70,2013-01-05 02:01:00,
2013-01-04 20:06:00,43.7,31.5,30.95,NW,321,0.0,5.0,62,0.00,,,0.00,Weather View 32 v70,2013-01-05 02:06:00,
2013-01-04 20:11:00,43.6,31.4,30.96,NW,321,1.0,5.0,62,0.00,,,0.00,Weather View 32 v70,2013-01-05 02:11:00,
2013-01-04 20:16:00,43.6,31.4,30.95,North,6,0.0,5.0,62,0.00,,,0.00,Weather View 32 v70,2013-01-05 02:16:00,
2013-01-04 20:21:00,43.9,31.7,30.95,North,6,0.0,5.0,62,0.00,,,0.00,Weather View 32 v70,2013-01-05 02:21:00,
2013-01-04 20:26:00,44.0,31.8,30.94,NNE,28,1.0,5.0,62,0.00,,,0.00,Weather View 32 v70,2013-01-05 02:26:00,
2013-01-04 20:31:00,44.1,31.9,30.95,NE,51,0.0,5.0,62,0.00,,,0.00,Weather View 32 v70,2013-01-05 02:31:00,
2013-01-04 20:36:00,44.2,32.0,30.96,NNW,343,0.0,5.0,62,0.00,,,0.00,Weather View 32 v70,2013-01-05 02:36:00,
2013-01-04 20:41:00,44.2,32.4,30.96,NNE,28,0.0,5.0,63,0.00,,,0.00,Weather View 32 v70,2013-01-05 02:41:00,
2013-01-04 20:46:00,44.1,32.3,30.95,North,6,0.0,5.0,63,0.00,,,0.00,Weather View 32 v70,2013-01-05 02:46:00,
2013-01-04 20:51:00,44.2,32.4,30.95,North,6,0.0,3.0,63,0.00,,,0.00,Weather View 32 v70,2013-01-05 02:51:00,
2013-01-04 20:56:00,44.1,32.7,30.95,NNE,28,0.0,3.0,64,0.00,,,0.00,Weather View 32 v70,2013-01-05 02:56:00,
2013-01-04 21:01:00,44.1,32.7,30.95,NNE,28,0.0,3.0,64,0.00,,,0.00,Weather View 32 v70,2013-01-05 03:01:00,
2013-01-04 21:06:00,44.1,32.3,30.96,North,6,1.0,3.0,63,0.00,,,0.00,Weather View 32 v70,2013-01-05 03:06:00,
2013-01-04 21:11:00,44.0,32.6,30.95,NNE,28,0.0,3.0,64,0.00,,,0.00,Weather View 32 v70,2013-01-05 03:11:00,
2013-01-04 21:16:00,43.7,33.1,30.94,East,96,3.0,3.0,66,0.00,,,0.00,Weather View 32 v70,2013-01-05 03:16:00,
2013-01-04 21:21:00,43.5,32.9,30.94,East,96,3.0,4.0,66,0.00,,,0.00,Weather View 32 v70,2013-01-05 03:21:00,
2013-01-04 21:26:00,43.8,33.2,30.94,East,96,2.0,4.0,66,0.00,,,0.00,Weather View 32 v70,2013-01-05 03:26:00,
2013-01-04 21:31:00,43.8,33.2,30.94,ENE,73,2.0,4.0,66,0.00,,,0.00,Weather View 32 v70,2013-01-05 03:31:00,
2013-01-04 21:36:00,44.0,33.7,30.94,ENE,73,2.0,4.0,67,0.00,,,0.00,Weather View 32 v70,2013-01-05 03:36:00,
2013-01-04 21:41:00,44.1,32.7,30.94,ENE,73,3.0,4.0,64,0.00,,,0.00,Weather View 32 v70,2013-01-05 03:41:00,
2013-01-04 21:46:00,44.1,32.7,30.94,ENE,73,2.0,4.0,64,0.00,,,0.00,Weather View 32 v70,2013-01-05 03:46:00,
2013-01-04 21:51:00,43.9,32.5,30.93,East,96,3.0,4.0,64,0.00,,,0.00,Weather View 32 v70,2013-01-05 03:51:00,
2013-01-04 21:56:00,43.8,32.4,30.93,East,96,3.0,4.0,64,0.00,,,0.00,Weather View 32 v70,2013-01-05 03:56:00,
2013-01-04 22:01:00,44.1,32.7,30.94,ENE,73,2.0,4.0,64,0.00,,,0.00,Weather View 32 v70,2013-01-05 04:01:00,
2013-01-04 22:06:00,44.3,32.5,30.93,East,96,5.0,5.0,63,0.00,,,0.00,Weather View 32 v70,2013-01-05 04:06:00,
2013-01-04 22:11:00,44.1,32.3,30.93,East,96,3.0,5.0,63,0.00,,,0.00,Weather View 32 v70,2013-01-05 04:11:00,
2013-01-04 22:16:00,44.0,32.2,30.94,East,96,1.0,5.0,63,0.00,,,0.00,Weather View 32 v70,2013-01-05 04:16:00,
2013-01-04 22:21:00,43.9,32.1,30.94,East,96,2.0,5.0,63,0.00,,,0.00,Weather View 32 v70,2013-01-05 04:21:00,
2013-01-04 22:26:00,43.9,32.1,30.94,ESE,118,1.0,5.0,63,0.00,,,0.00,Weather View 32 v70,2013-01-05 04:26:00,
2013-01-04 22:31:00,43.8,32.8,30.94,East,96,3.0,5.0,65,0.00,,,0.00,Weather View 32 v70,2013-01-05 04:31:00,
2013-01-04 22:36:00,43.9,32.9,30.93,ENE,73,3.0,5.0,65,0.00,,,0.00,Weather View 32 v70,2013-01-05 04:36:00,
2013-01-04 22:41:00,43.5,32.1,30.93,ESE,118,3.0,5.0,64,0.00,,,0.00,Weather View 32 v70,2013-01-05 04:41:00,
2013-01-04 22:46:00,43.3,32.7,30.93,East,96,2.0,5.0,66,0.00,,,0.00,Weather View 32 v70,2013-01-05 04:46:00,
2013-01-04 22:51:00,43.1,32.9,30.93,ESE,118,2.0,5.0,67,0.00,,,0.00,Weather View 32 v70,2013-01-05 04:51:00,
2013-01-04 22:56:00,43.2,33.0,30.93,ESE,118,3.0,5.0,67,0.00,,,0.00,Weather View 32 v70,2013-01-05 04:56:00,
2013-01-04 23:00:00,43.4,33.2,30.93,ESE,118,3.0,5.0,67,0.00,,,0.00,Weather View 32 v70,2013-01-05 05:00:00,
2013-01-04 23:05:00,43.3,33.1,30.93,ESE,118,2.0,5.0,67,0.00,,,0.00,Weather View 32 v70,2013-01-05 05:05:00,
2013-01-04 23:10:00,43.2,33.0,30.93,SE,141,3.0,5.0,67,0.00,,,0.00,Weather View 32 v70,2013-01-05 05:10:00,
2013-01-04 23:15:00,43.1,32.9,30.93,SE,141,3.0,5.0,67,0.00,,,0.00,Weather View 32 v70,2013-01-05 05:15:00,
2013-01-04 23:20:00,43.1,33.2,30.93,ESE,118,2.0,5.0,68,0.00,,,0.00,Weather View 32 v70,2013-01-05 05:20:00,
2013-01-04 23:25:00,43.3,33.1,30.92,East,96,1.0,5.0,67,0.00,,,0.00,Weather View 32 v70,2013-01-05 05:25:00,
2013-01-04 23:30:00,43.3,32.7,30.93,South,186,3.0,5.0,66,0.00,,,0.00,Weather View 32 v70,2013-01-05 05:30:00,
2013-01-04 23:35:00,43.4,32.8,30.93,SSE,163,3.0,5.0,66,0.00,,,0.00,Weather View 32 v70,2013-01-05 05:35:00,
2013-01-04 23:40:00,43.3,32.7,30.92,SE,141,3.0,5.0,66,0.00,,,0.00,Weather View 32 v70,2013-01-05 05:40:00,
2013-01-04 23:45:00,43.4,32.8,30.93,ESE,118,3.0,5.0,66,0.00,,,0.00,Weather View 32 v70,2013-01-05 05:45:00,
2013-01-04 23:50:00,43.3,32.7,30.93,South,186,3.0,5.0,66,0.00,,,0.00,Weather View 32 v70,2013-01-05 05:50:00,
2013-01-04 23:55:00,43.5,33.3,30.93,SSE,163,6.0,8.0,67,0.00,,,0.00,Weather View 32 v70,2013-01-05 05:55:00,